Salamanca, Spain

6:46 AM CEST on September 25, 2016 (GMT +0200)
Matacan

Weather History for LESA - February, 2012

Change the Weather History Date:

Saturday, February 11, 2012

  Actual Average Record
Temperature  
Mean Temperature 30 °F -  
Max Temperature 40 °F - - ()
Min Temperature 19 °F - - ()
Degree Days  
Heating Degree Days 36    
Moisture  
Dew Point 16 °F    
Average Humidity 64    
Maximum Humidity 93    
Minimum Humidity 25    
Precipitation  
Precipitation 0.00 in - - ()
Sea Level Pressure  
Sea Level Pressure 30.21 in    
Wind  
Wind Speed 5 mph ()    
Max Wind Speed 15 mph    
Max Gust Speed -    
Visibility 5.7 miles    
Events      
T = Trace of Precipitation, MM = Missing Value Source: Averaged Metar Reports

Daily Weather History Graph

Daily Weather History Graph

Search for Another Location

Airport or City:

Trip Planner

Search our weather history database for the weather conditions in past years. The results will help you decide how hot, cold, wet, or windy it might be!

Date:

Astronomy

Feb. 11, 2012 Rise Set
Actual Time 8:22 AM CET 6:50 PM CET
Civil Twilight 7:53 AM CET 7:19 PM CET
Nautical Twilight 7:21 AM CET 7:51 PM CET
Astronomical Twilight 6:49 AM CET 8:23 PM CET
Moon 11:25 PM CET (2/11) 9:54 AM CET (2/11)
Length of Visible Light 11h 25m
Length of Day
10h 28m
Waning Gibbous, 84% of the Moon is Illuminated
Feb 11
Waning Gibbous
Feb 14
Last Quarter
Feb 21
New
Mar 1
First Quarter
Mar 8
Full

Hourly Weather History & Observations

Time (CET) Temp. Windchill Dew Point Humidity Pressure Visibility Wind Dir Wind Speed Gust Speed Precip Events Conditions
12:00 AM 24.8 °F 20.5 °F 23.0 °F 93% 30.21 in 5.0 mi ESE 3.5 mph - N/A   Unknown
1:00 AM 24 °F - 22 °F 88%  in 5 mi Calm Calm - -   Mist
1:00 AM 24.8 °F - 23.0 °F 93% 30.21 in 5.0 mi Calm Calm - N/A   Partly Cloudy
2:00 AM 24.8 °F - 23.0 °F 93% 30.21 in 5.0 mi Calm Calm - N/A   Partly Cloudy
3:00 AM 26.6 °F 20.0 °F 23.0 °F 86% 30.21 in 5.0 mi East 5.8 mph - N/A   Partly Cloudy
4:00 AM 21.2 °F - 19.4 °F 93% 30.18 in 5.0 mi Variable 2.3 mph - N/A   Partly Cloudy
5:00 AM 19.4 °F - 17.6 °F 93% 30.18 in 5.0 mi Variable 2.3 mph - N/A   Unknown
6:00 AM 21.2 °F - 19.4 °F 93% 30.18 in 5.0 mi Variable 1.2 mph - N/A   Unknown
7:00 AM 20 °F - 17 °F 84%  in 5 mi East 2.3 mph - -   Mist
7:00 AM 19.4 °F - 17.6 °F 93% 30.18 in 5.0 mi Variable 1.2 mph - N/A   Unknown
7:30 AM 19.4 °F 12.8 °F 15.8 °F 86% 30.18 in 5.0 mi ENE 4.6 mph - N/A   Unknown
8:00 AM 19.4 °F 11.5 °F 15.8 °F 86% 30.18 in 5.0 mi ENE 5.8 mph - N/A   Unknown
8:30 AM 19.4 °F 12.8 °F 15.8 °F 86% 30.21 in 5.0 mi East 4.6 mph - N/A   Unknown
9:00 AM 19.4 °F - 15.8 °F 86% 30.21 in - Variable 1.2 mph - N/A   Clear
9:30 AM 21.2 °F 16.4 °F 17.6 °F 86% 30.21 in - East 3.5 mph - N/A   Clear
10:00 AM 24.8 °F 16.1 °F 19.4 °F 80% 30.21 in - East 8.1 mph - N/A   Clear
10:30 AM 26.6 °F 16.2 °F 19.4 °F 74% 30.21 in - ENE 11.5 mph - N/A   Clear
11:00 AM 26.6 °F 15.2 °F 19.4 °F 74% 30.24 in - East 13.8 mph - N/A   Clear
11:30 AM 30.2 °F 20.2 °F 19.4 °F 64% 30.24 in - ENE 12.7 mph - N/A   Clear
12:00 PM 30.2 °F 20.2 °F 19.4 °F 64% 30.24 in - ENE 12.7 mph - N/A   Clear
12:30 PM 32.0 °F 22.5 °F 15.8 °F 51% 30.24 in - ENE 12.7 mph - N/A   Clear
1:00 PM 35 °F - 18 °F 36%  in 9 mi ENE 10.4 mph - -  
1:00 PM 33.8 °F 25.8 °F 17.6 °F 52% 30.24 in - East 10.4 mph - N/A   Clear
1:30 PM 33.8 °F 27.0 °F 15.8 °F 48% 30.24 in - ENE 8.1 mph - N/A   Clear
2:00 PM 35.6 °F 29.2 °F 15.8 °F 44% 30.21 in - East 8.1 mph - N/A   Clear
2:30 PM 37.4 °F 30.8 °F 10.4 °F 33% 30.21 in - ENE 9.2 mph - N/A   Clear
3:00 PM 37.4 °F 30.3 °F 14.0 °F 38% 30.21 in - ENE 10.4 mph - N/A   Clear
3:30 PM 37.4 °F 30.8 °F 12.2 °F 36% 30.18 in - ENE 9.2 mph - N/A   Clear
4:00 PM 37.4 °F 29.8 °F 14.0 °F 38% 30.18 in - ENE 11.5 mph - N/A   Clear
4:30 PM 39.2 °F 32.0 °F 12.2 °F 33% 30.18 in - NE 11.5 mph - N/A   Clear
5:00 PM 37.4 °F 28.5 °F 5.0 °F 26% 30.18 in - NE 15.0 mph - N/A   Clear
5:30 PM 37.4 °F 29.3 °F 8.6 °F 30% 30.18 in - ENE 12.7 mph - N/A   Clear
6:00 PM 37.4 °F 29.8 °F 10.4 °F 33% 30.18 in - ENE 11.5 mph - N/A   Clear
6:30 PM 35.6 °F 29.9 °F 10.4 °F 35% 30.18 in - ENE 6.9 mph - N/A   Clear
7:00 PM 34 °F - 11 °F 25%  in 12 mi ENE 9.2 mph - -   Clear
7:00 PM 33.8 °F 26.4 °F 12.2 °F 41% 30.21 in - ENE 9.2 mph - N/A   Clear
8:00 PM 30.2 °F 23.4 °F 14.0 °F 51% 30.21 in - ENE 6.9 mph - N/A   Clear
9:00 PM 26.6 °F 19.1 °F 15.8 °F 64% 30.24 in - East 6.9 mph - N/A   Clear
10:00 PM 24.8 °F 16.9 °F 17.6 °F 74% 30.24 in - East 6.9 mph - N/A   Clear
11:00 PM 24.8 °F 16.1 °F 17.6 °F 74% 30.27 in - East 8.1 mph - N/A   Clear